Погода в Кармёй

Норвегия     59°19′17″N   5°17′29″E
темп.,
°C
ветер,
м/с
пор.,
м/с
влажн.,
%
обл.,
%
осадки,
мм/ч
давл.,
гПа
погр.,
м
17 августа, ср
ср1723:00+16ссз7797100 0.2 1007330
02:00+15ссз11119292 0.3 1008501
05:00+15ссз13138695 0.0 1010806
08:00+14ссз13148489 0.1 1011854
11:00+14ссз121380100 0.1 1013887
14:00+14ссз111179100 0.1 1014944
17:00+14ссз111179100 0.1 10151003
20:00+14ссз8976100 0.2 1015981
18 августа, чт
чт1823:00+14ссз8873100 0.1 10151018
02:00+14ссз7774100 0.3 1015918
05:00+14ссз43678 0.0 1014875
08:00+13сз4369100 0.0 1015804
11:00+13зюз2267100 0.0 1015807
14:00+13юз3368100 0.0 1015588
17:00+14ююз4568100 0.0 1014638
20:00+14ю6667100 0.0 1014660
19 августа, пт
пт1923:00+15ююв8870100 0.0 1014602
02:00+15юв81071100 0.0 1013523
05:00+15юв91276100 0.3 1012573
08:00+16юв101473100 0.3 1011699
11:00+16ююв111584100 0.3 1011729
14:00+15ююв111690100 3.2 1010816
17:00+16ююв101486100 4.8 1011733
20:00+16ю101189100 5.3 1011667
20 августа, сб
сб2023:00+16ююз4587100 0.5 1011424
02:00+15зсз44813 0.8 1011346
05:00+15юз33752 0.0 1011523
08:00+15ююз34720 0.0 1010637
11:00+16ю77730 0.0 1010835
14:00+16ю88756 0.1 1010839
17:00+16ю91077100 0.7 1009799
20:00+16ю81076100 1.1 1009929
21 августа, вс
вс2123:00+15ю101285100 2.1 1008845
02:00+16ююз7876100 4.0 1008823
05:00+16ююз78724 0.6 1008895
08:00+15зюз55685 2.3 1009713
11:00+15ююз567011 0.8 1009707
14:00+15юз67704 1.9 10111023
17:00+15зюз67735 1.0 1011835
20:00+15зюз78757 2.6 1012895